Wind_Speed
20 21 21 22 22 21 20 19 19 19 20 21 21 21 21 21 22 22 23 23 23 22 21 21 21 21 21 21 21 22 23 24 24 24 23 22 20 18 16 14 11 8 7 8 10 12 12 13 15 17 19 21 21 19 15 12 14 20 28 32 33 32 30 30 29 30 32 34 37 41 45 50 55 58 58 54 51 49 47 49 52 53 52 50 49 49
20 21 21 21 21 21 20 19 18 19 20 21 21 21 21 22 22 22 22 22 22 21 20 20 20 21 20 21 21 22 22 23 24 23 22 21 19 18 16 14 12 9 7 8 10 12 12 12 14 17 20 22 21 19 16 13 13 20 28 32 34 33 32 31 30 29 29 30 32 35 41 47 53 56 55 53 51 49 47 47 49 51 51 50 50 50
20 20 20 21 20 20 19 19 18 19 20 20 21 21 21 22 22 21 21 21 22 22 21 20 21 21 21 20 20 20 21 22 23 23 22 20 19 18 17 15 13 10 8 8 9 11 11 12 14 17 21 22 21 20 17 13 12 19 27 33 35 34 33 31 30 29 29 28 29 33 38 45 51 53 52 49 48 47 46 46 47 48 48 48 49 50
19 20 20 20 20 20 19 18 18 19 19 20 20 20 21 21 21 20 20 21 21 22 21 21 21 21 21 21 20 20 21 22 22 22 21 20 19 19 18 17 14 12 9 8 9 11 12 12 14 17 21 22 21 20 18 13 12 18 27 32 35 34 33 32 31 30 30 29 30 33 38 45 49 51 50 48 46 45 44 44 45 47 47 47 48 49
19 19 20 20 20 20 19 18 18 19 19 19 19 19 20 20 20 20 20 20 20 20 20 20 20 21 21 21 22 22 22 22 22 22 21 20 20 19 19 18 15 13 10 9 9 10 12 13 14 17 21 23 22 20 18 13 11 17 26 31 34 34 33 32 31 31 31 31 32 34 39 44 49 50 49 48 46 44 42 41 42 45 47 47 47 47
20 20 20 20 20 19 19 18 18 18 19 19 19 19 19 19 19 19 19 18 19 19 19 20 20 21 21 21 22 23 24 23 22 21 20 20 20 20 20 18 16 14 11 9 10 11 12 13 14 17 21 23 22 21 18 13 10 16 24 30 33 33 32 32 31 31 32 32 34 37 40 45 49 50 49 48 47 44 42 40 40 42 46 46 45 45
20 20 20 20 20 19 18 17 17 17 18 18 19 19 19 19 19 18 18 18 18 19 19 19 20 20 19 20 22 23 23 21 20 19 19 19 19 20 20 18 16 14 12 10 10 11 12 13 14 17 21 23 23 21 18 12 10 15 22 27 30 32 32 32 31 32 32 34 35 38 42 46 49 50 49 48 47 45 43 40 39 41 43 43 43 43
20 20 19 19 19 19 18 17 16 16 17 18 18 19 20 19 18 18 18 18 18 18 17 17 18 18 18 19 20 21 20 20 19 18 18 18 19 19 18 17 16 15 13 12 11 11 12 14 15 17 21 23 23 21 17 11 9 15 20 25 29 31 31 31 32 32 33 35 37 39 42 46 49 49 47 47 47 46 44 42 41 41 41 41 40 40
18 19 19 19 19 18 17 16 16 16 16 17 17 18 18 18 18 18 19 18 17 16 16 16 16 18 19 19 19 19 19 19 18 18 18 18 18 18 17 16 16 15 14 13 13 12 13 15 15 16 19 23 23 21 17 10 10 14 18 23 27 30 31 32 32 32 33 35 38 40 43 45 47 47 46 46 46 45 44 43 43 43 42 40 39 38
18 18 18 19 18 17 16 15 16 16 16 16 16 16 16 16 17 18 19 19 18 16 15 15 16 17 19 19 19 19 19 19 18 17 17 17 17 17 17 17 17 16 14 14 14 14 14 16 16 16 18 21 22 20 16 10 10 14 17 21 25 29 31 32 32 33 34 36 38 41 43 45 46 46 46 45 43 42 42 43 44 44 44 41 39 38
17 17 17 17 17 16 15 15 16 16 16 15 15 15 14 14 15 16 17 19 19 18 17 16 16 16 17 19 19 20 19 19 18 17 16 15 15 16 17 18 18 16 14 15 15 15 16 17 17 16 17 20 21 20 17 11 11 15 17 20 24 28 30 31 32 33 34 36 38 40 43 45 46 47 46 45 42 40 40 42 43 45 45 43 41 40
16 16 16 16 16 16 15 15 15 15 15 14 14 14 14 14 14 15 15 17 18 19 19 18 17 16 16 17 18 19 19 19 19 18 16 15 15 16 17 19 18 16 14 16 16 16 17 18 18 16 16 18 20 20 17 11 11 15 17 20 24 27 29 31 31 32 33 35 37 39 41 44 46 46 46 45 43 41 40 41 43 44 44 43 42 42
15 15 15 15 16 15 14 14 14 14 13 12 12 12 14 15 15 15 15 16 18 19 19 19 18 18 17 17 17 16 16 18 18 17 15 14 13 14 15 16 15 14 14 16 17 17 16 17 17 16 16 17 19 20 16 10 12 16 17 20 24 27 29 30 31 31 32 33 35 36 38 41 43 45 46 46 44 43 41 41 42 44 44 43 43 43
14 15 15 15 14 14 14 13 13 12 12 12 12 13 15 16 16 16 16 17 18 18 18 18 18 18 18 17 14 12 14 18 20 19 16 14 12 12 13 14 12 11 14 16 16 15 15 16 16 16 16 17 18 18 15 9 12 17 18 20 24 27 29 30 30 31 31 32 33 34 35 37 39 42 44 46 46 45 44 43 43 44 44 43 42 42
14 13 13 12 13 13 13 13 12 12 13 13 14 15 16 16 16 15 15 16 17 18 18 17 17 17 16 13 10 11 16 20 20 19 19 17 14 12 13 13 10 9 13 15 15 14 14 14 15 16 16 16 17 17 14 8 10 17 19 20 23 27 29 30 30 31 30 31 31 32 32 34 36 39 42 44 46 46 45 44 44 44 44 43 42 43
13 13 12 11 12 13 14 13 13 13 14 14 14 14 15 15 15 15 15 16 16 16 15 15 14 14 13 11 11 13 18 20 20 19 18 20 17 14 13 13 11 10 12 15 15 14 14 14 14 15 16 15 15 16 13 7 9 15 19 20 22 26 28 30 30 31 31 31 31 31 32 33 34 37 40 42 44 45 45 45 44 44 43 43 43 45
14 13 13 12 13 14 14 14 14 14 14 14 14 14 14 15 15 15 15 15 15 14 12 11 8 6 8 12 13 14 18 19 20 19 18 21 20 17 14 12 12 12 12 13 14 14 13 13 14 15 15 13 13 14 12 7 7 14 18 19 21 24 27 29 30 30 31 31 32 32 33 33 35 38 40 41 42 43 43 44 43 42 41 41 44 48
14 14 13 13 13 14 14 14 14 14 14 14 14 15 16 16 15 15 14 14 13 12 11 10 8 5 5 7 10 15 19 19 19 19 18 20 22 20 14 12 12 12 11 11 13 14 13 13 14 15 15 15 13 13 12 7 6 12 17 18 20 22 25 28 29 30 31 32 33 34 34 35 37 39 41 42 42 42 42 42 42 41 40 40 43 46
14 14 14 14 14 15 15 14 13 13 13 14 15 16 17 17 15 14 13 13 13 13 12 10 10 9 9 11 15 19 21 19 18 17 16 17 21 21 15 12 12 12 10 11 13 13 13 13 14 15 17 18 15 13 11 6 4 12 17 18 19 20 23 27 28 30 31 32 34 35 36 37 38 40 42 42 42 42 41 41 41 41 41 41 42 43
15 15 14 14 15 15 15 14 14 13 14 15 17 17 17 16 15 14 13 14 14 14 13 12 11 12 13 15 19 22 23 21 19 16 16 16 19 20 16 13 13 12 10 11 13 13 13 13 13 15 17 16 15 12 11 6 2 12 18 19 19 20 22 25 28 30 32 33 35 36 38 38 40 41 42 42 42 41 40 39 39 40 41 41 41 41
15 16 15 15 15 15 15 15 15 15 15 17 18 18 16 15 13 13 14 14 15 15 14 13 13 14 16 18 20 24 26 22 18 15 14 14 16 17 16 14 14 12 8 10 13 13 13 12 13 14 17 15 14 11 10 8 2 10 19 22 21 20 21 25 28 31 33 34 35 37 38 39 40 41 42 43 42 41 40 39 39 40 41 41 41 40
16 17 17 16 16 15 16 17 17 17 17 17 17 16 15 14 13 14 15 16 16 15 15 15 16 17 19 20 23 26 27 23 18 14 11 10 12 15 16 15 16 14 8 10 13 13 13 13 13 14 15 16 15 11 9 9 6 4 14 20 22 21 21 25 29 33 35 36 36 37 38 39 40 41 42 43 43 42 41 40 40 40 42 42 41 40
17 18 18 17 17 16 17 17 18 18 17 17 17 16 15 15 15 15 17 17 17 17 18 18 19 19 19 20 23 25 24 21 17 12 8 5 8 14 16 16 16 14 8 10 14 14 13 13 13 13 13 14 14 11 8 7 8 6 6 14 20 22 23 25 29 33 36 37 37 37 37 38 39 40 42 43 43 42 41 41 40 41 42 42 42 41
18 18 18 18 17 17 18 18 18 18 17 17 17 17 17 17 17 17 18 18 18 18 18 18 18 18 17 18 19 20 19 16 12 9 6 6 9 13 16 16 16 13 7 9 16 16 14 13 12 11 11 11 11 10 8 6 6 8 6 6 15 21 24 26 29 33 35 37 37 37 37 36 37 38 40 42 42 42 41 41 40 41 42 42 42 42
18 18 18 18 18 19 19 19 19 19 19 19 19 18 18 17 17 18 18 17 16 15 15 15 15 14 15 15 15 14 13 12 11 10 8 7 10 14 16 15 15 13 8 7 15 18 15 14 12 10 9 9 9 9 7 4 4 6 8 4 8 17 23 26 29 33 36 37 37 36 35 34 34 36 38 40 42 42 41 40 40 40 41 42 42 42
19 19 19 19 20 20 20 20 20 20 20 19 19 18 17 17 17 16 15 13 12 12 12 12 11 11 13 13 12 11 12 13 13 13 11 8 9 12 15 15 15 15 13 4 14 19 16 14 12 10 7 7 7 7 6 4 2 3 6 7 3 10 20 25 29 32 36 37 37 36 34 33 32 34 36 38 40 41 40 40 39 39 39 40 41 41
18 18 18 18 19 19 19 18 18 18 18 17 17 17 17 16 15 13 11 10 10 10 11 8 7 9 11 10 10 12 13 13 12 12 13 10 8 9 12 14 17 17 16 4 11 18 16 15 13 11 9 7 7 7 6 4 1 2 4 7 5 5 15 23 29 32 36 37 38 37 35 33 32 32 34 36 37 39 39 39 39 38 38 38 39 39
16 16 16 16 16 16 16 16 16 15 15 15 15 15 15 14 12 10 9 8 9 10 10 7 6 6 6 7 11 14 15 11 9 13 17 12 8 7 11 14 17 17 15 5 8 16 16 15 14 12 10 9 8 7 6 5 2 1 3 6 7 4 9 19 27 33 36 38 38 38 37 34 32 32 32 33 34 35 36 37 37 37 37 37 36 37
15 15 15 15 15 15 14 14 13 13 13 13 13 13 12 11 10 9 8 9 9 10 10 9 8 7 7 10 13 14 12 6 7 16 21 14 8 8 12 15 16 16 13 6 4 12 14 15 14 12 11 10 10 9 7 5 2 1 2 3 6 7 6 14 24 32 38 40 40 39 38 36 34 33 31 31 32 32 33 34 35 35 35 34 34 34
15 15 14 14 14 13 13 12 12 12 12 12 12 11 10 10 9 9 9 9 9 9 9 9 9 9 9 10 10 8 4 3 10 18 21 14 9 9 14 15 16 15 12 6 0 4 8 12 14 14 13 12 12 10 8 6 3 1 1 1 5 7 7 10 18 28 35 40 41 40 39 38 36 34 32 31 31 31 32 32 33 33 32 32 31 31
15 14 14 13 13 12 12 11 11 11 11 11 11 10 9 9 9 9 9 9 9 9 9 10 10 10 9 6 3 2 1 6 13 19 20 14 9 10 14 14 15 16 15 8 3 1 3 7 12 16 15 15 14 12 10 8 5 3 3 2 2 6 7 7 14 21 29 35 39 41 42 41 39 37 35 33 32 31 31 32 32 32 32 31 30 29
14 13 13 12 12 11 11 11 10 10 10 10 10 9 9 9 9 9 9 9 9 9 10 10 10 10 9 6 5 4 4 10 15 18 19 14 11 12 14 13 14 17 18 13 7 2 1 2 7 14 16 16 16 15 13 10 7 5 4 3 1 5 7 6 11 18 23 28 33 37 41 41 40 39 37 35 33 32 32 32 32 32 32 31 30 29
13 13 12 12 11 11 10 10 10 10 10 9 9 9 9 9 9 9 9 9 10 10 10 10 10 10 9 10 9 9 11 14 16 16 17 14 11 11 13 13 14 16 18 16 11 6 2 2 6 11 13 16 17 17 14 12 8 6 5 4 2 4 6 4 8 16 21 24 27 31 34 37 38 38 38 36 35 33 33 33 33 33 32 31 29 29
13 12 12 11 11 11 11 10 10 10 10 9 10 10 10 10 10 10 10 10 10 11 11 11 11 10 10 10 10 11 14 15 15 15 15 14 11 10 13 13 13 14 15 14 12 9 4 4 7 10 10 13 16 17 16 13 10 7 6 6 5 4 5 3 5 14 20 23 25 26 28 30 32 33 34 34 34 34 33 33 33 33 32 31 30 29
12 12 11 11 11 11 11 11 11 10 10 10 10 11 11 11 11 11 11 11 11 11 12 13 13 12 12 11 10 11 13 16 17 16 16 14 13 12 13 12 11 12 12 11 10 8 4 3 5 10 10 10 13 15 15 14 12 10 8 8 7 5 4 2 4 12 18 22 24 25 25 26 27 28 29 30 31 32 32 32 32 32 32 32 31 30
12 11 11 11 11 11 11 11 11 11 11 11 11 12 12 12 12 12 12 12 12 12 13 14 15 15 15 14 14 15 17 19 19 18 17 16 15 13 11 10 11 12 11 10 9 7 6 5 1 8 11 8 8 10 14 15 13 12 11 11 9 6 3 2 4 10 14 19 22 24 24 25 25 25 26 26 27 29 30 30 31 31 31 31 31 31
11 11 11 11 11 11 12 12 12 12 12 12 13 14 14 14 14 14 14 14 14 13 14 14 15 15 16 17 18 19 20 21 20 18 18 17 17 15 13 12 13 14 11 9 9 8 7 5 1 5 10 7 6 8 12 15 15 14 13 13 11 7 4 3 5 9 12 16 20 23 24 25 25 25 25 25 26 27 28 28 29 29 29 29 29 30
12 12 12 12 12 12 12 12 13 13 13 14 15 15 15 15 15 15 15 15 15 14 14 14 15 15 16 17 18 19 19 19 19 18 17 17 17 16 16 17 17 16 13 11 9 9 7 5 2 1 4 7 8 10 12 15 15 15 15 14 12 9 6 6 7 10 12 15 18 21 23 24 25 26 26 27 27 28 28 28 28 28 28 27 27 28
13 13 13 13 13 13 13 13 13 14 15 15 16 16 16 15 15 15 15 14 14 13 13 13 14 15 16 16 16 16 16 16 16 17 17 17 16 16 17 18 18 17 15 13 11 9 7 5 3 2 1 6 9 11 13 14 15 16 17 16 14 11 9 9 11 13 14 16 18 21 23 24 26 27 28 28 29 29 29 29 28 28 29 29 28 28
14 14 14 14 14 14 14 14 14 15 16 16 16 15 15 14 14 14 14 13 12 12 12 12 13 13 14 14 14 14 14 14 15 15 16 16 16 16 16 17 17 16 15 14 12 10 8 7 6 5 2 7 10 11 11 13 16 17 17 15 13 13 13 13 15 17 17 18 20 21 23 25 27 28 29 29 29 29 30 30 30 30 30 30 30 30
14 14 14 15 15 15 15 15 15 15 16 15 15 14 14 14 14 14 14 14 13 12 13 13 13 13 13 13 13 12 12 13 13 13 13 12 12 12 13 14 14 14 14 14 13 12 10 9 9 8 3 7 13 14 13 14 16 16 16 13 14 16 17 18 18 20 21 21 22 23 24 26 27 28 29 29 29 30 30 31 32 31 31 32 32 32
14 14 15 15 15 15 15 15 15 15 14 14 13 13 13 14 14 14 14 14 13 13 14 14 13 13 12 12 11 10 10 10 11 11 11 11 9 9 9 10 10 11 11 12 13 12 11 10 10 8 4 6 12 14 13 15 16 17 17 17 18 19 20 19 19 21 23 23 23 23 25 26 27 28 29 28 29 30 31 32 33 33 33 32 33 34
15 14 15 15 15 15 15 15 15 14 14 13 13 13 13 14 14 13 13 12 13 13 14 14 13 12 11 11 11 11 10 11 12 12 13 12 10 8 7 6 6 6 7 9 12 13 12 10 9 7 5 8 12 14 13 15 16 17 18 18 18 16 12 15 18 21 23 24 24 24 24 26 27 29 30 30 29 30 31 32 33 33 34 34 34 34
15 15 15 15 15 15 15 14 14 14 14 13 13 13 14 15 14 14 13 12 12 13 13 13 11 10 9 9 11 12 12 12 12 13 13 13 12 10 8 6 6 6 7 8 10 12 11 11 11 10 8 11 14 15 15 16 16 16 16 16 17 17 14 15 18 22 24 24 24 24 25 27 29 31 32 31 31 31 31 32 32 33 34 34 35 35
15 15 15 15 15 15 14 14 14 14 14 14 14 14 15 15 15 14 13 13 13 13 12 12 10 8 7 8 10 12 13 14 14 14 14 14 14 12 10 9 7 6 6 7 8 9 10 11 12 11 11 13 15 16 16 16 16 16 15 16 19 20 20 21 22 23 24 25 25 25 25 27 29 31 31 31 30 30 30 30 31 32 34 35 36 37
15 15 15 15 15 15 15 15 15 14 14 14 14 14 15 16 15 15 14 13 13 13 13 11 10 8 7 8 9 11 12 14 15 16 16 15 15 15 14 13 11 11 11 12 14 15 16 15 14 13 13 15 15 15 15 16 16 16 18 20 21 22 22 22 23 24 25 26 26 25 25 26 28 29 29 28 28 27 28 29 30 32 33 36 37 39
16 16 16 16 16 16 16 15 15 15 15 15 15 15 15 16 16 15 15 14 14 13 13 12 11 9 9 9 10 11 11 12 14 15 16 16 15 15 15 15 16 17 19 20 21 21 21 20 19 17 16 14 13 13 13 14 15 17 19 21 22 22 20 20 21 23 26 27 28 28 26 26 26 27 27 27 26 26 26 26 28 30 33 36 38 40
17 17 17 16 16 16 16 16 16 15 15 15 15 15 16 16 16 16 15 15 15 14 13 13 12 11 11 11 12 12 12 12 13 14 16 16 15 14 12 13 15 17 20 23 24 24 23 23 23 23 20 16 13 11 12 13 15 16 18 20 22 21 20 20 22 24 27 28 28 28 28 27 26 25 25 25 24 24 24 24 25 28 31 34 37 39
17 17 17 17 17 17 17 17 16 16 15 15 15 16 16 16 16 16 15 15 15 14 13 13 13 12 12 12 13 13 14 13 13 14 15 16 16 15 12 10 10 11 15 19 22 24 24 25 25 26 24 21 17 14 13 13 14 16 18 21 22 22 21 21 22 24 26 27 27 27 27 27 27 27 26 24 23 22 22 22 22 24 27 32 35 38
18 18 18 18 18 18 17 17 16 16 16 16 16 16 16 16 17 17 16 16 15 14 14 13 13 12 12 12 13 14 14 14 14 14 16 17 17 16 15 11 8 6 6 10 14 18 21 21 22 24 25 23 21 17 15 14 15 17 18 19 21 22 22 21 22 23 24 25 26 27 27 27 28 27 27 24 23 21 21 21 20 21 24 28 32 35
19 19 18 18 18 18 18 17 17 16 16 16 16 16 16 16 17 17 17 16 16 15 14 14 13 12 12 12 13 13 14 14 14 14 16 18 18 17 16 14 11 7 4 4 6 8 9 10 13 17 21 22 22 19 16 14 14 16 16 17 19 20 21 21 21 23 24 25 26 27 28 27 27 27 26 25 22 20 20 20 19 19 21 25 29 32
Wind_Direction
307 309 310 311 311 309 307 308 311 314 315 315 315 314 314 314 314 313 311 311 310 308 304 300 296 293 291 290 291 292 294 294 295 294 291 288 286 285 285 282 278 274 276 271 271 272 270 266 266 269 273 281 289 294 288 263 231 215 213 215 216 215 213 212 211 211 212 212 214 215 216 215 214 211 209 207 205 201 198 196 197 199 200 201 203 204
309 310 310 311 311 309 307 310 313 315 316 315 314 313 313 314 314 313 312 311 311 310 306 303 300 297 294 291 291 292 292 293 293 292 289 287 285 285 286 282 276 270 268 265 265 266 266 264 264 265 267 275 284 291 292 275 237 216 212 213 215 214 213 212 212 211 211 209 209 210 211 211 210 208 208 207 205 203 200 197 197 200 203 205 207 207
311 311 311 312 311 310 308 310 313 315 315 314 312 312 313 313 313 312 311 311 312 311 307 303 301 299 297 295 293 291 290 289 289 289 289 288 286 286 285 281 275 267 263 258 257 258 260 259 261 262 263 269 279 289 294 283 243 216 211 212 214 214 213 212 212 212 211 209 207 206 207 208 209 208 208 207 205 203 202 199 200 203 206 208 210 209
311 311 311 311 310 308 307 310 313 315 315 313 311 311 312 312 312 310 308 309 310 309 306 302 300 298 296 294 291 289 288 288 289 290 292 290 287 285 282 278 272 265 257 249 248 249 252 254 258 259 259 265 276 289 295 286 247 216 210 211 213 214 214 213 213 212 212 210 208 206 207 209 210 210 210 208 206 204 202 200 202 205 208 208 208 207
310 310 310 310 308 307 307 309 312 315 315 313 312 312 313 312 310 308 307 308 308 307 306 303 300 297 294 292 290 289 289 289 291 292 293 290 286 283 279 274 269 262 254 244 237 238 244 249 254 255 256 262 274 289 296 287 247 215 208 210 212 213 213 213 213 212 212 211 210 208 207 209 210 211 211 210 208 206 204 201 201 202 204 204 203 202
308 308 307 307 305 305 306 309 313 315 316 315 314 313 313 311 309 308 308 308 308 307 305 304 302 300 297 294 293 292 292 291 292 293 292 288 282 278 275 270 265 258 250 237 228 230 238 245 250 252 252 259 273 289 297 286 244 214 208 209 211 212 212 212 212 212 212 211 211 210 209 208 209 210 211 211 209 207 206 203 201 199 199 198 197 196
306 306 306 305 303 303 305 308 312 316 317 316 316 315 314 313 310 309 308 309 309 308 305 304 303 302 299 297 297 296 294 293 293 294 292 285 278 274 272 268 263 256 247 231 222 224 234 243 248 250 250 256 272 289 297 285 241 213 208 208 210 210 211 211 212 212 211 211 212 211 210 208 208 209 210 209 208 207 206 205 202 198 196 194 193 193
304 304 305 305 304 304 304 307 311 315 317 317 316 316 315 314 313 312 312 312 311 309 307 305 305 303 300 300 301 300 297 295 295 294 290 283 277 273 271 270 266 258 246 230 220 221 231 239 245 248 249 256 272 289 297 283 238 214 209 208 209 209 210 210 210 210 210 211 212 212 210 209 208 209 208 207 206 206 206 205 202 198 195 194 193 193
302 303 304 304 303 303 305 307 311 314 316 315 314 313 313 314 315 317 318 317 315 313 312 310 308 306 305 305 305 304 300 296 293 290 286 282 279 276 275 274 269 259 245 229 221 222 230 237 242 246 249 257 272 288 298 282 237 215 210 209 209 209 209 209 208 208 209 210 211 211 211 210 209 209 208 206 205 206 206 206 203 199 196 195 195 195
300 301 303 304 302 302 303 307 311 314 315 313 311 309 309 313 318 321 321 320 318 317 315 313 311 309 308 308 308 307 304 299 293 286 280 278 278 278 279 275 268 256 240 225 219 223 230 236 239 242 248 257 272 290 301 281 234 215 213 211 210 209 208 207 207 207 208 208 210 211 211 211 210 209 209 207 206 205 206 207 205 201 198 197 197 199
301 302 303 303 302 301 302 306 310 313 315 314 313 313 313 317 322 323 321 319 318 318 317 314 310 308 308 309 309 310 309 307 302 294 283 277 277 277 277 272 264 252 233 219 216 221 227 233 235 237 244 255 273 292 303 279 232 215 214 213 212 210 208 206 206 206 207 208 209 210 210 210 210 210 210 209 207 206 207 207 206 203 199 198 199 202
302 303 303 303 303 303 305 308 311 314 316 319 320 320 320 321 322 321 317 315 315 315 315 313 310 306 304 303 305 307 311 313 312 308 298 288 282 278 276 272 263 247 223 214 214 218 223 228 230 231 238 253 275 295 304 277 229 213 213 214 213 211 208 206 205 205 206 207 208 208 209 209 209 209 209 209 208 207 207 207 205 202 199 198 199 202
302 304 304 302 302 304 307 311 314 316 319 322 322 322 320 319 319 317 314 311 311 312 312 311 309 306 303 301 300 305 315 323 323 318 310 300 290 281 277 272 260 238 214 211 213 217 220 223 223 224 232 252 279 299 305 273 225 212 212 213 213 211 208 205 205 205 206 206 206 207 208 208 209 209 208 208 207 206 206 206 203 200 198 197 198 202
304 304 304 302 302 304 308 312 315 317 319 321 320 318 316 316 316 316 315 312 311 311 310 309 307 306 306 304 305 316 332 336 333 327 319 309 299 291 286 278 262 231 209 210 214 218 219 219 217 218 228 251 280 301 307 274 222 211 211 212 212 210 207 205 204 204 204 204 204 205 206 207 208 208 208 207 206 205 204 204 202 200 199 198 199 202
305 305 304 302 302 305 308 312 314 315 316 317 317 315 314 314 315 316 316 313 312 312 313 312 311 310 310 310 320 337 343 343 339 330 321 311 299 292 294 291 277 239 215 212 214 216 218 214 210 212 225 249 280 302 310 282 220 208 208 210 210 208 206 205 204 203 203 202 201 202 204 205 205 205 206 206 205 204 202 202 202 202 202 201 202 205
304 303 301 300 301 303 307 310 312 313 314 315 315 314 314 314 315 315 314 312 311 313 316 319 320 318 316 317 327 339 345 344 339 330 321 312 301 293 300 301 291 262 229 214 211 213 215 211 207 209 223 250 283 306 315 292 220 204 204 206 207 207 205 204 203 202 201 201 200 200 201 202 201 200 200 201 201 200 198 198 200 202 203 204 206 208
301 299 298 298 300 302 305 307 309 310 312 313 313 314 313 312 311 311 310 310 311 314 319 323 324 320 318 317 322 332 340 341 336 328 319 310 301 297 307 306 294 273 240 215 207 209 212 208 203 206 219 246 283 310 319 301 222 201 200 202 204 205 205 204 203 202 201 201 200 200 200 199 197 194 193 193 193 193 193 193 194 198 201 204 207 210
298 297 297 297 297 300 303 305 307 308 310 312 313 314 313 310 308 308 309 311 312 315 319 320 319 315 313 312 314 321 329 334 330 323 316 307 301 301 308 309 297 277 247 213 202 204 207 203 198 200 213 237 269 302 319 308 221 198 197 199 202 204 204 204 203 201 201 201 201 200 199 197 193 190 187 186 186 186 186 187 189 192 196 202 207 210
298 297 296 296 297 298 300 302 305 308 311 313 314 313 311 308 308 309 311 312 314 315 316 315 313 309 306 302 303 309 316 323 323 317 309 302 300 302 310 310 300 283 251 211 197 198 202 199 198 202 215 232 257 292 321 324 216 196 195 198 201 203 204 204 203 201 200 201 200 199 197 195 191 188 185 184 184 183 184 185 187 189 192 198 204 207
298 295 293 294 296 297 297 298 301 306 310 312 311 309 305 305 307 311 314 314 313 313 312 311 309 307 305 301 301 304 309 314 315 310 303 297 297 301 311 311 302 287 251 207 193 192 195 193 194 202 214 231 252 286 332 351 200 195 199 201 202 203 204 203 202 201 200 199 199 197 195 193 191 188 186 186 185 185 185 186 188 189 190 193 197 201
296 292 290 291 293 294 294 296 300 304 307 308 305 302 300 304 309 312 314 313 312 311 310 309 306 304 302 300 298 301 305 307 306 303 300 297 295 298 306 313 310 298 256 204 189 188 188 187 191 201 213 229 249 279 338 11 70 192 201 204 205 205 204 203 202 200 199 197 196 194 193 192 190 189 188 188 188 187 187 186 187 188 188 189 192 195
290 288 288 288 288 289 291 295 298 300 301 300 297 296 299 306 311 312 311 310 309 309 308 305 302 299 297 294 294 298 304 302 296 292 297 297 294 296 304 313 314 303 265 198 182 182 184 183 188 200 214 229 244 269 325 10 42 155 195 202 205 206 205 203 201 199 198 195 193 192 192 191 191 190 189 189 189 189 188 187 186 187 187 188 189 192
286 285 286 287 287 287 289 292 294 294 293 291 290 292 299 304 306 306 305 304 304 303 302 300 298 296 294 291 294 299 305 304 296 287 286 286 290 295 302 311 313 305 272 188 175 176 178 178 183 195 212 228 241 260 308 355 32 68 160 194 201 205 205 203 200 199 197 195 193 191 191 192 192 191 191 191 190 190 189 187 187 186 187 187 189 191
287 286 286 287 287 287 288 288 288 287 287 287 289 292 296 298 299 298 297 297 298 298 299 299 299 299 297 295 295 299 307 314 312 302 293 286 288 293 299 306 310 308 284 184 171 170 170 171 177 191 209 226 237 254 299 336 24 48 62 170 195 201 203 201 199 197 196 195 193 192 192 192 192 193 193 193 192 191 190 188 187 187 187 188 190 192
290 289 289 289 289 288 287 286 286 287 288 290 293 295 296 297 296 296 295 295 295 297 300 303 304 303 302 301 298 300 311 329 341 340 327 306 295 295 298 304 309 310 301 187 166 163 164 164 170 182 201 222 236 252 284 318 15 44 46 77 182 196 199 199 197 196 196 195 194 193 192 192 191 192 192 193 193 192 190 189 188 187 188 189 192 195
293 293 293 293 293 291 290 290 290 291 292 293 294 296 297 297 296 296 295 295 298 303 308 308 306 304 303 302 302 306 315 324 335 344 340 321 300 296 298 308 313 314 313 214 164 159 159 157 160 169 183 207 224 239 261 298 350 50 44 46 112 186 194 196 196 195 195 195 195 194 193 191 189 189 189 190 191 191 190 189 188 188 188 189 193 197
298 298 298 297 297 296 296 295 294 293 293 292 292 294 296 297 297 296 295 300 308 313 312 308 303 303 305 306 307 310 313 317 330 344 343 326 302 292 301 313 317 318 316 275 166 157 153 148 148 153 163 183 202 219 239 268 291 70 51 41 53 155 186 193 195 195 195 195 195 195 194 191 188 186 186 186 187 188 187 187 188 188 188 189 192 198
306 305 304 304 303 303 302 300 299 297 296 295 295 296 296 297 298 297 298 307 313 312 305 301 300 304 308 312 311 308 306 306 330 350 349 334 307 290 304 317 322 322 319 306 160 151 147 143 144 149 158 171 184 198 216 237 250 72 64 43 47 87 169 187 193 195 196 195 195 195 195 192 189 186 183 183 183 183 184 185 186 187 188 189 192 197
313 312 311 310 310 309 310 308 307 304 302 301 300 299 299 300 300 299 301 308 309 305 299 298 301 305 309 311 309 305 296 301 350 356 353 341 317 303 313 321 326 328 325 325 147 143 139 142 147 154 161 170 178 183 193 212 226 59 81 55 51 66 133 175 188 193 195 195 195 194 194 192 190 186 183 181 180 180 181 182 184 185 186 188 191 196
318 317 315 314 315 315 315 314 313 310 308 307 306 306 305 305 302 300 301 303 302 298 296 298 301 306 310 312 311 305 298 357 356 350 351 346 329 315 321 324 328 332 334 333 21 135 128 137 146 155 165 170 171 171 173 187 194 188 179 110 58 62 96 153 178 189 192 194 193 192 192 191 189 187 183 180 178 177 178 179 180 181 181 183 186 191
318 317 315 315 316 316 316 315 313 312 311 312 313 313 311 309 305 301 299 298 296 294 294 296 298 302 307 313 315 311 333 334 335 339 346 344 329 318 323 324 326 331 335 330 322 35 104 125 139 150 161 164 162 161 166 171 173 176 190 179 70 56 69 127 163 177 186 190 192 191 190 189 188 186 184 182 179 177 177 177 177 176 175 175 176 179
317 316 314 315 316 317 317 316 315 314 313 314 316 315 314 310 307 303 299 296 294 292 291 291 292 295 298 295 291 287 290 302 315 328 340 338 325 318 323 324 324 328 334 329 319 307 79 97 136 147 155 153 150 150 158 160 160 163 179 179 110 45 46 100 150 164 172 180 185 188 188 189 188 187 185 184 182 180 179 178 177 175 172 170 169 169
317 316 316 317 319 320 320 320 319 317 316 317 316 316 314 311 308 304 300 296 293 289 286 286 289 291 290 287 283 280 282 290 302 318 333 334 326 318 322 323 324 327 333 334 331 328 358 77 133 147 151 143 138 138 142 144 146 152 160 156 125 44 30 68 145 159 162 167 173 178 183 186 187 187 186 186 185 184 182 181 180 179 176 172 169 168
319 319 321 323 325 325 325 324 323 322 321 320 319 318 315 313 310 305 301 297 292 287 281 280 281 284 287 286 284 282 283 287 297 311 323 330 325 316 317 320 323 328 333 337 339 341 357 72 126 143 140 131 127 127 128 129 132 136 136 135 118 68 23 33 146 158 159 159 160 165 170 177 181 183 184 184 185 185 185 184 184 183 182 179 175 171
325 327 330 331 331 329 329 328 328 327 325 323 322 320 318 315 311 307 303 299 293 287 282 277 275 274 275 278 281 282 284 289 299 309 315 320 319 315 315 316 323 330 334 338 340 342 343 16 129 144 132 120 118 121 123 123 122 120 115 118 113 91 39 36 143 153 155 154 154 156 160 166 171 174 176 179 181 182 183 184 185 186 186 184 182 178
331 333 335 335 334 333 331 331 330 329 327 325 324 322 320 318 314 310 306 302 297 291 285 281 277 273 270 268 270 273 279 289 300 309 310 310 310 310 308 308 316 324 331 335 339 339 332 327 152 141 130 117 108 113 118 122 120 113 103 102 101 94 62 73 134 145 148 149 150 153 156 160 163 166 168 171 174 176 178 180 182 184 185 185 185 183
336 337 338 337 337 335 334 333 331 330 328 326 325 324 322 320 317 314 311 308 303 298 292 287 284 280 276 273 271 273 280 291 301 308 309 308 305 301 294 294 302 310 317 321 327 330 328 318 334 114 120 118 107 106 116 122 120 112 103 98 98 96 75 86 125 139 144 146 148 152 155 158 160 161 162 164 166 168 170 173 176 178 179 180 182 183
342 341 341 340 339 337 335 333 331 329 327 325 324 324 323 321 319 317 315 312 308 303 296 292 290 289 288 285 282 283 288 296 304 310 313 311 305 298 290 289 294 300 302 302 307 314 319 314 325 49 114 120 118 118 121 123 120 113 107 105 105 105 97 100 119 135 140 141 144 149 154 157 157 157 157 157 158 159 160 163 166 169 170 171 173 176
345 344 343 342 341 338 334 330 328 327 326 325 324 324 323 321 321 320 319 316 312 308 302 296 295 296 298 296 295 296 300 306 313 319 320 317 310 302 294 289 291 296 301 299 297 297 301 302 312 335 80 121 123 123 124 125 121 116 111 108 107 107 106 110 114 119 128 134 138 141 147 152 153 152 151 152 152 151 151 153 156 159 161 160 159 161
346 345 344 342 340 336 332 328 326 326 326 326 325 325 326 325 326 328 328 325 322 319 316 312 309 309 310 311 312 314 317 321 325 327 326 321 315 307 299 292 291 294 299 299 295 291 287 285 294 313 7 135 135 128 127 126 126 124 118 107 99 99 108 114 113 114 124 127 127 129 134 140 144 145 145 147 147 147 148 149 151 155 158 155 151 147
345 345 343 341 338 334 331 329 328 328 328 327 328 329 330 331 331 332 335 334 334 334 334 333 330 327 326 327 327 329 330 332 334 337 339 337 329 315 304 296 293 294 296 298 300 300 296 289 294 305 325 143 139 133 129 128 129 127 120 113 104 101 106 109 110 113 118 119 118 119 121 127 132 135 138 140 142 145 148 149 150 153 156 157 154 148
343 343 341 339 336 333 331 331 331 332 332 333 332 333 335 336 336 335 335 336 338 340 342 341 337 333 331 333 336 340 343 348 355 3 8 7 356 335 313 302 297 296 298 301 308 314 317 314 316 321 332 136 137 134 130 128 127 125 122 118 112 106 102 100 104 107 109 109 109 109 111 114 119 124 128 131 134 139 145 148 150 152 153 154 155 155
341 340 339 337 336 335 335 335 336 337 338 338 338 339 340 341 341 340 339 338 338 340 342 342 339 335 333 337 342 348 354 0 7 15 21 22 16 2 340 325 322 321 316 313 316 325 337 346 358 14 55 122 133 131 127 125 125 126 129 128 120 108 93 90 98 104 106 107 107 106 105 108 114 119 124 126 129 133 138 142 146 150 152 152 152 153
338 339 340 340 340 340 341 342 342 342 343 343 343 344 345 347 348 346 344 343 343 344 344 344 342 342 344 345 345 347 354 3 13 23 30 33 32 27 18 11 10 8 356 337 329 333 346 7 28 51 88 117 126 125 122 121 123 127 129 127 118 110 105 105 106 107 108 110 110 108 106 108 114 119 123 125 127 130 133 137 140 144 148 151 151 151
340 342 344 345 345 346 346 346 346 346 347 348 349 349 349 352 353 352 351 348 348 348 348 348 349 353 358 356 351 349 352 360 9 21 31 39 43 46 49 48 42 34 31 26 21 18 19 24 37 59 88 108 116 118 119 121 123 124 122 117 112 109 109 113 116 116 114 114 114 112 110 110 113 116 117 118 121 125 129 133 136 140 144 148 150 151
346 348 349 350 350 350 350 350 349 351 352 354 354 354 354 355 356 356 356 354 351 350 351 354 359 4 7 3 359 356 355 358 2 9 20 31 43 53 60 67 76 81 80 76 72 68 62 55 53 61 77 90 97 102 110 118 120 120 117 116 113 111 111 114 118 121 122 122 121 121 120 117 113 109 107 109 112 117 123 129 133 138 142 146 150 151
350 351 352 353 353 353 353 353 354 355 356 357 358 358 358 358 359 359 360 359 357 354 355 359 4 9 11 9 6 3 0 358 357 0 7 15 28 42 54 64 74 81 84 83 81 77 73 69 67 67 70 75 78 81 90 103 111 115 117 117 116 113 110 110 115 121 126 127 128 130 131 126 114 104 101 103 106 109 114 122 130 136 141 145 149 151
352 354 355 355 356 356 356 357 357 357 357 357 358 359 1 2 3 3 1 1 0 359 0 2 5 8 10 11 10 9 6 3 359 358 0 4 11 23 40 56 67 73 77 80 81 81 79 75 70 67 64 65 67 70 76 87 98 107 114 118 117 114 110 112 117 121 124 126 130 133 135 130 120 108 101 99 98 99 104 112 122 131 139 144 147 150
355 356 357 358 359 359 358 358 359 359 358 358 358 359 1 4 6 6 4 3 4 4 3 3 4 6 7 8 8 9 8 5 2 0 0 1 3 9 20 38 56 67 71 75 79 81 81 76 70 64 60 60 61 64 70 80 91 102 110 115 116 116 114 116 119 122 124 126 128 131 133 131 128 121 110 99 91 89 94 101 112 124 134 142 146 148
358 359 360 1 2 1 360 359 359 359 359 359 359 360 1 4 7 8 8 7 7 7 6 5 5 5 6 6 6 7 6 4 2 0 359 0 1 3 6 14 26 42 59 70 75 77 76 70 65 61 60 59 59 60 64 75 89 99 103 108 114 117 118 118 120 123 124 125 126 127 127 127 128 126 117 105 94 88 89 93 101 114 127 137 143 146
360 1 2 3 4 3 2 1 0 360 359 360 0 1 3 5 7 8 9 10 9 8 6 7 7 7 6 5 5 5 5 5 2 359 358 0 2 2 3 7 9 10 17 53 72 74 72 65 57 53 50 53 56 60 65 73 85 92 95 102 110 115 117 118 119 122 122 122 123 125 125 124 124 123 119 110 100 91 88 89 94 105 118 130 136 139
Height
717 715 713 712 710 708 706 704 703 702 700 698 697 695 693 692 690 688 687 685 683 682 680 678 677 677 676 675 674 673 673 672 672 671 671 670 669 668 667 666 666 665 665 666 666 666 665 666 666 667 667 667 667 668 667 667 668 669 671 672 674 676 678 679 681 682 684 685 687 689 692 695 698 702 705 708 709 710 712 713 716 719 722 725 727 730
717 715 713 712 710 707 705 703 702 702 700 698 697 695 693 691 689 687 686 684 682 681 679 678 677 676 675 674 673 672 672 671 671 670 670 669 667 667 666 665 664 664 664 664 664 664 664 665 665 665 665 666 667 667 667 666 667 667 669 671 673 675 676 678 679 681 682 683 685 687 690 694 697 701 704 707 708 710 712 712 714 717 720 723 726 728
717 715 712 711 709 707 705 703 702 701 700 698 696 695 693 691 689 687 685 683 682 680 679 677 676 675 673 672 672 671 671 670 670 669 668 667 666 665 664 664 663 663 663 663 663 663 663 663 663 664 664 665 666 666 665 665 665 666 668 670 671 673 674 676 677 679 680 681 683 685 690 694 697 701 703 706 707 709 711 712 713 716 719 721 724 727
717 715 712 711 709 707 705 703 702 700 699 698 696 694 693 691 689 687 685 683 682 680 678 677 676 674 672 671 670 670 669 669 668 667 666 665 664 663 663 662 662 662 662 662 662 662 662 662 662 662 663 664 665 665 664 663 663 664 666 668 670 671 672 674 675 677 678 679 681 684 688 693 697 700 702 704 706 708 710 711 712 714 717 720 722 725
717 715 713 711 708 706 704 703 701 700 698 697 696 694 692 691 689 687 685 683 682 680 678 676 675 673 672 670 669 668 667 667 666 664 663 663 662 662 662 662 661 661 661 661 661 661 661 662 662 662 662 663 664 663 662 662 662 662 664 666 668 669 671 672 674 675 677 678 681 684 687 692 695 698 701 702 705 707 708 711 711 712 715 718 721 724
717 716 714 711 709 706 704 702 701 700 698 697 695 693 692 690 688 686 684 683 681 680 678 676 674 672 670 669 667 666 665 664 663 662 662 661 661 661 661 661 660 659 659 659 660 660 660 661 661 661 662 662 663 662 661 660 660 661 662 664 666 667 669 671 672 674 676 678 680 683 687 690 693 696 699 701 703 705 707 709 710 711 714 717 720 722
717 715 713 711 708 706 704 702 701 700 698 696 694 692 691 689 687 686 684 683 681 679 677 675 673 672 670 668 666 665 663 662 662 661 660 660 660 660 660 659 659 658 658 658 658 659 659 660 660 660 661 662 662 662 660 659 659 659 661 662 664 665 667 669 671 673 675 677 680 682 685 688 691 694 697 699 701 703 705 707 709 711 713 716 719 721
717 714 713 711 708 706 703 702 701 700 698 697 695 692 690 688 687 685 683 682 681 679 677 675 673 671 670 668 666 664 663 662 661 660 660 659 659 659 658 658 657 657 657 657 657 657 658 658 658 659 659 660 661 660 659 658 657 658 659 661 662 664 666 668 670 672 673 676 678 681 683 686 689 692 695 697 699 701 703 705 707 710 712 715 718 721
716 714 712 710 708 705 703 701 700 699 698 697 696 693 691 688 686 684 682 681 680 678 677 675 673 671 669 667 666 664 663 662 661 660 659 659 658 657 657 657 656 656 656 656 656 656 656 657 657 657 658 659 660 659 658 657 656 657 657 659 660 662 664 666 668 670 672 674 677 680 682 685 687 690 693 696 697 699 701 702 705 708 711 714 717 720
716 714 712 709 707 705 703 701 699 699 698 697 696 694 692 690 687 685 682 680 679 677 677 675 673 671 668 666 665 664 663 662 661 660 659 658 657 656 656 655 654 654 654 654 654 654 655 656 656 657 657 658 659 658 657 655 655 655 656 657 658 660 662 665 667 668 671 673 675 678 681 683 685 688 691 693 695 696 698 700 703 707 710 712 716 719
715 713 711 709 707 705 703 701 700 698 698 697 695 694 692 691 689 687 684 681 678 677 676 674 673 671 669 666 664 663 662 661 659 658 657 656 656 655 654 654 653 652 652 653 653 653 654 654 655 656 656 658 658 657 656 654 653 653 654 656 657 659 661 663 665 667 669 671 673 676 678 681 683 686 688 690 692 693 696 698 702 705 708 711 714 717
714 712 711 708 706 704 702 701 700 698 697 696 695 693 692 691 690 688 686 683 680 677 675 674 672 671 669 667 665 663 662 660 658 657 656 655 654 654 653 652 652 651 651 652 652 652 652 653 654 654 655 657 657 656 654 653 652 652 653 654 656 657 659 661 663 665 667 669 671 674 676 678 681 683 686 688 690 692 694 697 700 703 707 709 712 716
714 712 711 708 706 704 702 701 699 698 697 697 696 694 692 691 690 688 687 684 681 679 676 674 671 669 668 667 666 664 662 660 657 656 654 653 653 652 652 651 651 650 650 650 650 651 651 652 652 653 654 656 655 654 652 651 650 651 652 653 655 656 658 660 662 663 665 667 669 672 674 676 678 681 683 686 687 690 692 696 699 702 705 708 711 715
713 712 710 708 706 704 702 701 700 699 698 697 696 695 693 692 690 688 686 684 682 679 677 674 671 669 667 666 665 663 662 659 657 654 653 652 651 651 651 650 649 648 649 649 649 649 649 650 651 651 653 655 654 652 651 649 649 649 651 652 654 655 657 659 661 662 664 666 667 670 672 674 676 678 681 683 686 688 691 694 697 701 704 707 710 713
713 712 710 708 706 704 702 701 700 699 698 697 697 695 694 692 690 688 687 684 681 679 676 674 671 668 666 665 664 662 660 659 657 655 652 651 650 650 649 648 647 647 648 648 648 648 648 649 649 650 652 653 653 651 650 648 648 649 650 651 653 654 656 658 660 662 663 665 667 668 671 673 675 677 679 682 684 686 689 692 696 700 703 706 708 712
713 712 710 708 706 704 703 702 701 699 698 697 697 695 694 692 690 688 687 684 682 679 677 674 671 667 665 664 663 662 660 659 657 656 653 650 649 648 648 647 646 646 646 646 646 647 647 648 648 649 651 652 652 651 649 647 647 648 649 650 652 654 656 657 659 661 662 664 666 668 670 672 674 676 678 680 683 685 687 690 694 698 702 704 708 712
713 712 710 708 706 704 703 702 701 700 699 697 697 695 694 692 691 689 687 685 682 680 677 676 673 670 666 663 662 662 661 660 658 657 654 651 648 647 647 646 646 645 644 644 645 646 646 647 647 648 650 651 651 650 648 647 646 647 648 649 651 653 655 657 658 660 662 663 665 667 670 672 673 675 677 679 682 684 687 689 693 697 700 704 707 711
712 711 710 708 706 704 703 702 701 700 699 698 697 695 694 692 691 689 687 685 683 681 678 677 675 673 670 666 663 662 662 662 660 658 655 651 648 646 646 645 645 644 643 643 644 644 645 646 646 647 648 650 650 649 647 646 646 646 647 648 650 652 654 656 657 659 661 663 665 667 669 671 673 675 677 679 681 683 686 688 691 695 699 704 708 711
712 711 710 708 706 704 703 702 701 700 699 698 697 695 694 692 690 689 687 685 683 682 680 678 676 674 672 669 666 664 663 663 662 659 656 652 648 645 644 644 644 643 642 642 642 643 644 644 645 645 647 648 649 648 647 646 645 645 646 647 649 651 653 654 656 658 660 662 664 667 669 671 672 674 676 678 680 683 685 688 691 693 697 702 707 711
712 711 709 708 706 704 703 702 701 700 699 698 697 696 693 691 690 688 687 686 684 682 680 678 677 675 672 670 667 664 663 663 662 660 656 652 648 645 644 643 643 642 641 641 641 642 642 643 644 645 646 648 648 648 647 645 644 644 646 647 649 651 652 654 655 657 659 662 664 666 668 670 672 674 676 678 680 682 685 687 690 693 696 700 706 710
712 710 709 708 706 704 702 701 700 700 699 698 697 695 693 691 689 688 687 686 684 682 681 679 677 675 673 670 667 664 663 663 662 660 656 652 648 645 643 643 642 641 640 640 640 641 641 642 643 644 646 647 647 647 647 645 644 644 646 647 649 650 652 653 655 657 659 661 663 665 667 669 671 673 675 677 679 682 684 687 689 692 695 699 704 708
711 709 707 707 706 704 702 701 700 699 699 698 697 695 692 691 690 688 687 686 684 682 681 679 677 675 673 670 667 664 662 662 662 660 657 653 648 645 643 643 642 640 639 638 639 640 641 642 643 644 645 646 647 648 648 646 645 645 646 647 648 650 651 653 654 656 659 661 663 665 667 669 671 672 674 676 678 681 683 686 688 691 694 697 702 707
709 707 706 705 704 703 702 700 699 699 698 697 696 694 692 691 690 689 687 686 684 682 681 678 676 674 672 670 667 664 662 661 660 659 657 654 649 645 643 643 642 640 638 637 637 639 641 642 643 643 644 646 647 648 649 647 646 645 646 647 648 649 650 652 654 656 658 660 662 665 667 669 670 672 674 676 678 680 682 685 687 690 693 696 700 705
708 706 705 704 702 702 701 699 698 697 696 695 694 693 692 691 690 688 687 685 684 682 680 678 675 673 671 669 666 663 662 661 660 659 658 654 650 646 644 642 641 639 637 637 637 639 641 642 642 643 644 646 647 648 649 647 646 645 645 646 647 648 650 651 653 655 657 660 662 664 667 668 670 672 674 676 678 680 682 685 687 689 692 695 699 704
706 705 703 702 701 700 699 698 697 696 695 694 693 692 691 690 689 688 686 684 683 681 679 677 675 672 670 668 665 663 662 661 661 660 658 655 651 647 644 642 641 639 638 636 637 638 640 641 642 643 645 646 648 649 648 647 647 646 646 646 647 648 649 651 652 655 657 659 661 664 666 668 670 672 674 676 677 680 682 684 687 689 692 695 698 703
704 703 702 701 700 699 698 697 696 695 694 693 692 691 690 689 688 687 685 684 682 681 679 677 675 673 670 667 665 663 662 661 660 659 658 657 652 648 644 642 641 639 637 636 636 637 639 639 641 643 645 646 647 648 649 648 647 647 647 647 648 648 649 650 652 654 656 659 661 663 666 668 670 671 673 675 677 679 681 684 686 689 691 694 698 702
703 702 701 699 698 697 696 695 694 693 692 692 691 690 689 688 687 686 684 683 682 681 680 678 676 673 670 667 665 663 661 661 660 659 658 657 654 649 645 643 641 639 637 635 635 636 637 638 640 643 645 647 648 649 649 649 649 649 649 649 648 648 649 650 652 653 656 658 661 663 665 667 669 671 673 675 677 678 680 683 686 689 691 695 698 702
702 700 699 698 697 696 695 694 693 692 691 691 690 689 688 687 686 685 684 683 682 682 680 678 676 673 670 668 665 663 661 661 660 659 657 656 654 651 647 645 643 640 638 635 635 636 637 638 640 643 646 647 649 649 650 650 650 650 650 650 649 649 649 650 651 653 656 658 661 663 665 667 669 671 672 674 676 677 680 682 685 688 691 694 698 702
700 699 698 697 696 695 693 692 692 691 690 690 689 688 687 687 686 685 684 683 683 682 680 678 677 674 672 669 666 663 661 660 659 658 657 656 654 651 648 646 644 642 639 636 635 636 637 639 641 644 647 648 649 650 651 652 651 651 651 651 651 650 650 650 652 653 656 658 660 662 664 666 668 670 672 673 675 677 679 682 685 687 691 694 697 701
699 698 697 696 695 694 693 692 691 690 689 689 688 687 686 686 685 684 684 683 683 682 680 678 677 675 673 671 667 663 660 659 659 658 657 657 654 652 649 647 645 643 641 638 636 636 637 639 642 645 648 649 649 651 652 652 652 652 652 652 652 652 652 652 653 654 656 658 660 662 664 666 668 669 671 672 674 677 679 681 684 687 690 693 696 699
698 697 696 695 694 693 692 691 690 689 689 688 687 686 686 685 684 684 683 682 682 681 679 678 677 675 674 672 670 666 662 660 659 659 659 658 656 653 651 648 646 644 643 641 639 637 637 640 643 646 648 649 650 651 651 652 652 652 653 653 653 653 653 654 655 656 657 658 660 662 664 666 668 669 670 672 674 677 679 681 683 686 689 692 695 698
698 697 695 694 693 692 692 691 690 689 688 687 687 686 685 684 683 683 682 682 681 680 679 677 676 675 675 673 672 669 665 662 661 660 660 659 657 654 652 650 647 645 644 643 641 639 637 639 643 646 647 648 649 650 651 652 652 653 653 653 652 652 653 655 656 657 657 659 660 662 664 666 667 668 670 672 674 676 678 681 683 686 688 691 694 697
697 696 695 694 693 692 691 690 689 688 688 687 686 685 684 684 683 682 682 681 680 679 678 677 676 675 674 673 672 670 667 664 662 662 661 660 658 655 653 652 650 647 645 642 641 639 638 639 642 645 647 647 648 649 650 651 652 653 653 652 652 652 654 655 656 657 657 659 661 662 664 666 667 668 670 671 673 676 678 680 683 685 687 690 693 697
697 696 695 694 693 692 691 690 689 688 687 686 686 685 684 683 682 682 681 680 679 678 677 677 676 675 674 673 671 669 666 664 663 662 662 661 659 657 654 653 652 650 647 644 642 640 640 641 642 645 646 647 648 649 650 651 652 652 652 652 652 653 655 656 657 657 657 658 659 661 663 664 666 667 669 671 673 675 677 680 682 685 687 690 693 696
697 696 695 694 693 692 691 690 689 688 687 686 685 684 683 682 681 681 680 679 679 678 677 676 675 674 673 672 671 669 666 663 662 662 662 661 660 658 656 654 653 652 650 648 645 643 642 642 642 643 644 646 648 650 650 651 651 652 652 652 652 654 656 657 656 656 656 656 657 659 661 662 664 666 668 670 672 675 677 680 682 685 688 690 693 696
697 696 695 694 693 692 690 689 688 687 686 685 684 683 682 681 680 679 679 678 678 677 676 675 674 673 672 672 670 668 666 663 662 662 661 661 660 659 657 655 654 653 652 651 649 647 645 644 642 642 643 646 648 650 651 651 651 652 652 652 652 653 655 656 656 655 654 655 656 657 659 661 663 665 667 670 672 675 678 680 683 686 688 691 693 696
697 696 695 694 692 692 690 689 688 687 686 685 683 682 681 680 679 678 677 677 677 676 675 674 672 672 671 670 668 667 665 663 662 661 661 660 660 659 657 656 654 653 653 652 651 650 648 646 643 642 644 646 647 649 650 651 652 652 652 652 652 653 655 656 656 655 654 655 656 657 659 661 663 665 668 671 673 676 679 682 684 686 689 692 694 697
697 696 695 694 692 691 690 689 688 687 686 684 683 682 681 679 678 677 677 676 675 674 674 672 671 670 669 668 667 665 664 662 661 660 660 659 659 658 657 655 654 653 653 653 652 651 650 648 645 642 643 645 647 648 650 651 652 653 653 653 654 656 657 658 657 656 655 656 657 659 660 662 664 666 669 672 674 677 680 682 685 687 690 692 695 697
697 696 695 694 692 692 690 689 688 687 685 684 683 682 680 679 678 677 676 675 673 673 672 671 670 669 667 666 665 664 663 662 661 660 659 658 658 657 656 655 653 653 652 652 652 652 651 650 647 644 643 645 647 649 650 651 652 653 653 654 656 657 659 659 658 658 657 658 659 660 661 663 665 667 669 672 675 677 680 682 685 687 689 692 695 697
697 696 695 694 693 692 691 689 688 687 685 684 682 681 680 679 677 676 675 674 673 672 671 670 669 667 666 665 664 662 662 661 660 659 659 658 657 657 655 654 653 652 652 652 651 651 650 649 648 646 645 645 647 649 651 652 652 652 653 656 657 659 659 659 660 659 659 659 660 661 662 664 666 668 670 673 675 677 679 682 684 687 689 691 693 697
698 697 696 694 693 692 691 689 688 687 685 684 682 681 680 678 677 676 674 673 672 671 670 669 668 667 665 664 663 662 662 661 661 660 659 658 657 656 655 654 653 652 651 651 650 649 649 647 646 645 645 645 647 649 651 652 652 652 654 657 659 660 660 661 661 660 660 661 661 662 663 664 666 669 671 673 676 678 680 682 684 687 689 691 692 695
699 697 696 695 693 692 691 689 688 687 685 684 682 681 680 678 677 676 675 673 672 671 670 669 667 666 665 664 663 663 662 662 661 659 658 657 657 656 654 653 652 652 651 650 649 648 647 646 645 644 644 645 647 649 651 652 652 654 656 658 659 659 659 661 662 662 662 662 663 663 664 665 667 669 672 674 677 679 681 683 685 687 689 692 693 695
699 698 697 696 694 692 691 690 688 687 685 684 683 681 680 679 678 677 675 674 673 672 671 670 668 667 667 665 664 663 662 662 661 659 658 657 656 655 654 653 652 652 651 651 649 647 646 646 645 644 644 645 647 649 651 652 653 655 657 658 657 656 658 662 663 663 663 663 664 665 666 667 668 670 672 674 677 680 682 684 686 688 690 692 694 697
700 699 697 696 694 693 691 690 688 687 686 684 683 682 680 679 678 677 676 675 674 673 672 671 670 669 668 667 665 664 663 662 661 660 658 657 657 655 654 653 652 652 652 651 650 649 648 647 646 645 646 647 649 650 651 653 655 657 658 657 656 655 657 661 663 663 664 665 666 668 669 670 670 671 673 675 678 681 683 685 687 689 691 693 695 697
701 699 697 696 695 693 692 690 689 687 686 685 683 682 681 679 678 677 676 675 674 673 672 672 671 670 669 668 667 665 664 662 661 660 659 658 657 656 655 655 654 654 653 653 652 651 650 649 648 648 648 649 650 652 653 654 656 658 658 658 657 657 659 661 663 664 665 667 669 671 672 673 673 674 675 678 680 683 685 687 688 690 692 693 695 697
701 699 698 697 695 694 692 691 689 688 687 685 684 683 682 680 679 678 677 676 675 674 673 672 672 671 670 670 668 667 665 664 662 661 660 659 658 657 657 657 656 656 656 655 653 652 652 651 651 651 651 652 653 654 655 656 657 658 658 658 658 659 661 663 665 667 667 669 671 673 676 676 676 676 678 680 682 685 687 688 689 691 693 694 696 698
702 700 699 697 696 694 693 692 690 689 687 686 685 684 682 681 680 678 677 677 675 674 673 672 672 671 671 670 669 668 667 666 664 663 662 661 660 659 659 659 658 657 656 655 654 654 653 653 653 653 654 655 656 657 658 658 659 659 659 659 660 661 663 666 668 669 670 671 673 676 678 679 680 680 682 682 684 687 688 690 691 692 694 696 697 699
702 701 700 698 697 695 694 692 691 690 688 687 686 685 683 682 681 680 678 677 676 675 674 673 672 672 671 671 670 669 668 667 667 665 664 662 661 660 660 660 660 659 658 657 656 655 655 655 655 656 657 657 658 660 660 660 660 660 660 660 661 663 666 669 671 672 672 674 676 678 680 682 683 684 684 685 687 689 690 692 693 694 696 697 699 700
703 702 701 699 697 696 695 693 692 691 689 688 687 686 684 683 682 681 680 678 677 676 675 674 673 672 672 672 671 670 670 669 668 667 666 664 663 662 661 661 660 660 659 658 657 657 657 657 658 659 660 661 661 662 662 662 662 662 662 662 663 665 668 671 672 673 674 676 678 679 681 682 684 685 685 686 689 691 693 694 696 697 698 699 701 702
705 703 702 700 699 697 696 694 693 692 691 689 688 687 686 685 683 682 681 680 679 678 677 676 675 674 673 673 672 672 671 671 670 668 667 666 665 663 662 662 661 661 661 660 659 659 659 660 662 662 663 663 664 664 664 664 664 664 664 665 666 667 670 672 674 675 676 678 679 681 682 683 685 686 687 688 691 694 696 697 699 700 701 702 703 704
706 704 703 701 700 699 697 696 694 693 692 691 690 688 687 686 685 684 682 682 681 680 679 678 677 676 675 675 674 673 673 672 672 671 669 668 667 666 664 663 662 662 662 661 661 661 662 664 665 667 667 667 667 667 666 667 667 667 667 669 670 671 672 674 676 677 678 679 681 682 683 685 686 687 689 691 694 696 698 701 702 704 704 705 706 707